Theta_e
324 322 329 329 326 327 332 330 327 328 330 329 329 329 333 335 338 338 337 337 336 334 332 333 333 330 328 329 328 327 326 324 325 329 329 331 328 325 327 327 323 313 316 319 319 312 312 312 318
323 325 329 329 327 331 330 329 334 331 330 329 330 333 332 336 336 338 337 336 336 333 330 332 333 328 328 329 327 324 321 321 318 323 326 329 327 328 329 328 323 312 321 319 316 312 312 313 316
326 327 327 327 329 332 330 331 331 332 332 331 332 333 336 337 335 336 338 337 337 335 327 332 333 326 329 329 324 314 314 321 325 322 321 327 328 324 328 327 322 318 327 321 314 312 312 312 314
325 327 328 327 330 328 325 329 332 331 332 332 332 333 334 337 335 334 337 337 336 335 333 333 332 326 328 328 323 314 312 317 329 323 326 326 328 326 328 325 321 324 325 318 313 312 312 312 314
325 327 325 330 331 325 323 331 332 330 330 331 331 332 336 335 335 335 338 337 336 336 336 332 330 326 328 328 325 317 313 322 327 323 324 320 327 325 326 326 315 316 316 313 312 312 312 311 312
325 327 325 328 331 325 325 328 331 330 330 331 330 334 336 335 332 336 337 336 336 336 336 333 328 326 327 326 327 321 316 314 315 321 320 314 319 325 321 319 325 318 313 313 312 312 312 312 311
324 324 328 328 329 329 327 329 329 329 331 330 330 332 336 336 332 334 336 336 336 336 335 331 327 324 325 327 328 325 321 315 311 312 313 312 313 321 321 314 323 325 316 313 312 312 312 313 313
324 322 327 325 327 329 328 329 329 329 330 331 328 329 334 333 332 333 336 336 335 334 334 331 326 324 322 326 329 328 323 318 311 310 312 312 312 313 314 313 317 315 313 313 313 313 313 313 314
324 320 324 326 327 326 328 327 328 328 330 330 329 331 330 330 332 329 336 335 334 334 335 332 329 323 321 322 326 329 325 318 311 310 311 312 313 312 312 312 313 313 313 313 313 313 314 314 315
322 320 323 324 323 323 324 326 327 327 327 329 331 330 332 332 328 328 332 334 334 334 334 331 329 327 324 325 327 327 324 320 313 311 310 312 313 313 312 312 312 313 313 314 314 314 314 316 318
323 322 322 323 322 322 322 323 325 326 325 327 330 330 332 331 328 328 330 330 333 333 333 330 329 329 327 326 326 327 325 323 318 314 310 311 313 314 313 313 313 313 313 314 314 314 315 317 320
325 325 324 323 323 323 321 323 322 324 324 325 327 329 330 330 328 325 327 328 331 334 333 332 329 328 327 329 328 325 324 322 322 314 312 311 313 314 314 314 313 313 313 314 314 315 316 317 318
323 324 325 325 323 323 323 322 322 323 325 324 326 329 330 330 329 327 326 326 327 330 333 332 331 329 328 329 329 326 323 320 320 317 316 314 313 314 315 315 314 313 313 313 314 315 317 318 318
324 324 325 325 324 323 322 322 322 323 324 323 324 327 332 331 329 330 327 325 324 325 331 333 333 331 329 328 328 327 324 322 321 319 317 316 312 312 313 313 314 314 314 314 314 316 317 318 319
325 324 323 324 324 323 323 322 320 323 322 324 324 324 327 331 331 329 328 326 324 322 324 331 332 332 330 328 328 327 327 324 323 322 321 318 316 312 311 312 313 313 315 315 315 317 320 321 319
324 324 325 323 324 324 324 325 322 323 323 322 323 322 325 324 327 328 328 329 328 326 324 329 332 331 332 330 329 328 328 327 325 323 323 321 318 316 312 312 312 313 315 316 316 317 318 319 320
324 325 324 324 323 322 321 324 322 324 324 323 323 323 322 322 324 326 327 326 327 327 326 325 328 330 330 331 331 330 330 329 328 327 325 324 321 318 316 313 312 313 315 316 316 316 316 317 319
327 326 326 325 322 321 323 323 321 325 325 323 324 323 322 322 323 325 326 326 326 327 328 326 326 327 329 329 331 331 331 330 330 329 328 327 325 322 317 316 314 313 314 316 316 316 316 317 320
321 320 320 320 320 321 320 320 320 322 323 323 323 323 324 325 326 325 326 326 327 327 327 328 325 324 327 329 329 331 331 331 331 330 329 328 328 326 322 318 316 315 314 314 315 316 316 317 320
322 323 322 319 321 322 321 322 320 320 320 321 322 322 323 323 323 323 325 325 326 325 324 325 327 324 326 327 326 325 328 330 330 330 329 329 329 329 327 323 319 316 314 314 315 315 316 316 319
320 323 321 321 320 321 322 323 321 320 321 321 321 322 323 323 323 323 322 322 324 325 324 324 324 326 328 328 329 331 330 329 330 330 330 330 328 329 329 327 325 320 316 314 313 314 315 315 317
321 319 320 321 321 322 321 323 319 318 317 316 319 320 321 322 322 323 323 322 321 323 324 324 324 324 326 329 331 329 329 328 326 326 328 329 329 328 328 328 328 327 323 318 315 314 314 316 317
320 317 319 320 321 321 320 320 316 316 317 317 317 320 322 323 323 323 323 323 323 322 322 324 324 324 325 327 329 329 329 327 327 328 327 326 326 327 328 328 328 329 328 327 326 320 316 315 316
319 319 320 321 321 323 319 320 318 316 317 317 318 319 319 319 319 319 319 319 320 320 320 321 323 323 323 325 326 327 327 327 327 329 328 327 326 325 326 327 328 328 328 328 328 328 325 320 318
320 321 323 323 324 321 318 320 319 316 316 316 317 317 317 316 316 316 316 316 317 318 319 319 319 322 323 324 326 327 328 329 328 328 328 329 328 327 325 325 325 326 327 328 329 328 328 327 325
322 321 321 322 322 318 315 321 318 315 317 318 319 316 315 315 315 315 314 315 314 315 316 316 315 316 319 324 326 326 328 329 329 330 330 330 329 328 327 326 325 324 324 325 328 329 329 328 327
321 322 317 315 305 313 315 315 315 315 314 315 315 314 314 315 315 314 313 311 310 312 313 315 315 314 315 316 318 321 326 328 330 330 331 331 330 330 329 329 327 326 326 326 326 328 328 328 328
320 318 320 320 320 317 314 315 315 316 314 313 312 312 313 314 315 315 311 310 310 311 312 312 312 312 313 314 315 318 319 321 326 329 330 330 330 330 330 330 329 328 328 328 327 327 327 328 328
319 321 320 319 317 317 315 313 311 312 313 312 311 313 315 315 315 313 310 309 309 310 310 311 312 312 312 312 313 314 315 317 321 324 327 328 328 329 330 331 330 330 329 329 329 327 326 327 327
315 319 319 322 319 316 314 315 311 311 311 312 312 313 314 315 315 313 310 309 309 310 310 311 311 311 311 312 312 313 312 314 318 321 323 326 328 328 329 329 330 330 329 329 329 328 326 326 325
Wind_Speed
16 14 11 6 4 5 2 3 3 4 3 3 7 8 9 5 3 3 13 11 10 9 12 11 8 6 4 3 2 2 2 4 12 14 13 15 10 15 15 9 8 13 15 14 14 15 16 17 19
16 12 6 4 4 4 3 4 7 3 7 8 7 8 4 3 4 13 16 11 10 11 12 10 9 5 5 4 3 3 1 8 10 13 12 16 10 14 11 7 7 13 14 14 14 16 16 15 16
12 7 4 3 1 1 2 3 6 8 6 2 3 5 4 3 5 19 15 15 11 10 13 11 9 5 5 4 4 5 5 11 9 12 9 16 12 11 13 7 4 14 14 13 14 15 14 14 14
15 4 2 3 4 3 5 7 15 5 4 5 5 5 6 3 4 8 24 19 13 8 10 11 9 7 5 5 5 7 9 11 12 11 10 15 15 12 10 6 6 13 12 11 12 12 13 12 14
10 3 3 2 5 2 3 15 10 6 7 6 3 4 4 4 4 17 23 19 15 13 9 11 9 8 6 5 5 6 7 11 13 9 12 13 15 11 14 10 8 11 11 10 10 10 10 11 11
7 4 3 3 5 3 4 4 6 8 11 9 3 8 4 6 7 20 23 17 14 15 12 12 11 10 8 6 6 5 5 5 6 9 8 8 13 12 9 12 10 8 9 8 7 8 9 10 10
2 3 3 3 5 1 2 5 1 5 10 6 5 4 6 11 8 22 24 18 14 15 12 13 12 11 11 9 7 5 4 3 3 5 5 8 9 11 10 10 12 10 8 6 6 6 7 8 9
3 3 3 3 3 1 6 5 1 6 2 8 6 5 6 14 11 20 21 17 14 13 13 12 13 13 12 12 11 8 5 5 5 5 4 4 6 9 8 10 10 10 8 6 5 5 5 6 6
1 3 2 4 5 2 5 3 2 3 4 2 3 4 5 10 11 16 22 17 16 15 16 14 12 14 14 13 13 12 9 8 8 7 7 6 6 7 8 9 10 10 8 5 4 3 3 4 5
3 3 6 3 5 3 1 2 3 1 3 3 6 5 8 11 13 16 20 22 22 21 19 17 14 12 15 16 15 14 12 11 10 9 9 9 10 10 10 10 10 10 9 7 4 3 2 2 3
4 5 4 2 5 9 4 7 5 3 2 8 14 15 15 16 16 18 19 19 24 21 21 20 17 15 15 15 15 16 15 14 13 12 12 12 13 13 13 11 11 10 10 8 6 5 4 3 3
3 9 10 5 2 3 4 8 10 5 9 9 7 19 18 18 18 19 20 22 25 25 21 21 21 20 19 16 18 16 16 15 15 13 13 14 15 14 12 11 11 12 11 11 9 8 7 5 4
4 7 13 12 5 3 5 8 6 15 11 14 14 12 21 18 16 17 17 19 22 26 24 22 24 24 23 22 21 20 18 18 17 15 14 15 17 15 14 14 14 14 14 13 12 11 9 6 8
5 12 15 16 13 6 4 11 4 5 9 10 10 11 18 18 17 16 19 20 22 22 26 27 25 26 26 27 25 23 20 20 19 18 15 16 18 17 18 17 18 16 16 15 13 11 10 9 9
7 4 4 8 5 5 1 7 8 20 21 21 18 18 18 19 20 21 19 19 20 22 22 28 27 26 29 29 27 26 22 22 22 21 19 19 20 20 19 20 19 18 17 16 15 14 13 12 10
2 0 3 3 10 9 6 14 7 11 19 25 25 19 19 20 24 24 21 20 20 20 25 26 28 28 29 31 30 29 27 24 24 24 23 22 22 23 23 22 21 19 19 19 18 18 17 17 16
3 4 6 6 10 7 10 11 13 20 20 20 27 28 23 24 24 27 24 22 21 22 23 30 30 31 29 31 32 32 30 29 27 26 27 25 24 25 25 25 23 21 22 23 21 21 20 20 17
8 4 2 3 7 10 17 17 8 15 22 22 17 19 25 24 21 27 30 28 24 24 24 25 34 33 31 30 33 34 34 33 31 30 31 30 29 27 27 27 27 25 26 25 25 24 22 21 19
5 3 3 1 4 10 6 8 8 16 19 21 26 23 25 26 25 27 21 34 29 26 25 28 31 34 34 35 34 38 40 38 37 35 34 33 33 31 30 30 30 30 30 28 27 25 25 25 22
5 5 5 6 3 2 8 20 16 18 17 23 24 27 24 29 28 27 29 27 33 30 29 29 32 34 34 35 34 35 39 40 38 36 35 35 36 34 33 33 33 33 33 31 31 29 28 27 26
12 18 13 8 3 1 8 19 16 14 24 29 37 43 41 37 33 32 30 36 34 35 33 34 33 35 38 37 34 35 36 40 41 42 42 42 38 36 34 34 34 35 35 35 34 33 32 32 29
17 15 11 9 4 4 4 8 7 6 13 15 26 33 39 43 50 45 39 36 34 37 37 36 34 35 37 40 40 40 39 40 40 43 45 45 43 40 39 37 36 36 35 37 36 35 35 34 34
11 11 14 7 6 1 6 3 7 7 7 17 15 29 30 30 33 36 39 37 36 36 34 37 36 36 36 41 43 44 44 41 39 41 43 43 43 43 42 41 40 40 40 40 38 37 38 38 37
6 8 7 4 5 7 12 9 8 7 9 4 7 1 2 6 4 2 6 5 11 10 11 25 39 38 37 38 40 44 46 44 43 44 45 44 42 42 42 43 42 42 43 43 42 41 40 40 39
7 9 5 5 6 6 7 9 17 9 6 4 6 18 20 18 19 17 10 5 2 6 8 10 14 25 34 38 40 44 46 48 47 47 47 46 44 44 43 42 43 43 43 44 45 45 45 44 43
18 12 5 6 5 5 9 8 7 12 19 8 11 22 23 23 21 20 16 15 16 13 10 7 8 18 24 31 38 42 45 47 50 50 50 49 48 46 44 43 42 42 42 42 44 46 47 47 46
13 12 5 5 2 2 5 7 9 10 5 9 17 21 24 17 16 16 17 18 21 18 13 11 10 11 13 22 30 35 40 43 49 50 51 51 50 49 46 45 45 42 41 40 40 43 45 48 48
9 10 6 3 6 5 5 5 5 4 7 8 12 19 18 14 13 13 17 21 20 19 17 15 16 15 15 14 21 28 33 37 41 45 50 51 50 49 47 46 45 43 42 41 40 41 41 44 46
6 10 7 6 3 7 3 5 5 9 10 11 12 21 16 10 7 11 20 21 22 18 18 18 18 18 15 15 14 18 26 30 33 39 43 46 47 49 48 46 46 46 46 44 43 42 42 44 44
8 6 7 9 8 3 3 4 5 9 10 14 12 13 12 8 8 11 22 23 22 20 20 21 22 22 20 19 18 16 17 22 30 35 39 42 45 46 47 46 46 47 47 47 46 44 43 45 46
Wind_Direction
350 345 333 3 36 57 6 337 120 97 59 79 73 68 118 75 59 162 136 210 204 173 165 159 149 144 135 120 88 32 1 98 111 112 111 114 124 104 114 115 99 107 100 102 98 92 88 92 97
350 350 4 343 74 49 313 70 77 77 113 92 76 58 78 100 88 147 150 186 203 172 172 167 155 145 135 115 86 63 80 115 114 122 124 121 116 115 118 124 97 101 106 103 95 92 90 97 101
350 346 352 86 81 101 130 110 127 89 92 95 83 71 84 114 108 152 165 175 187 176 175 168 162 154 139 112 85 70 111 119 123 118 122 127 117 125 134 143 98 117 114 103 98 95 93 92 101
351 16 302 86 260 304 122 162 126 108 82 82 85 71 89 117 163 154 156 165 190 171 161 171 169 161 152 126 100 92 103 119 131 128 135 134 128 133 132 135 145 118 119 108 97 95 94 96 103
1 311 27 348 287 144 104 149 133 154 156 151 123 164 107 168 208 151 157 179 184 171 195 182 179 169 168 147 121 104 108 129 145 142 145 138 140 144 149 137 128 122 114 113 106 97 90 91 106
345 4 32 330 342 146 91 122 155 157 149 139 127 132 156 206 204 164 161 178 190 188 185 191 189 179 178 172 158 135 128 128 134 147 159 153 147 151 181 154 134 136 135 121 106 100 92 90 95
46 69 243 292 280 124 146 146 165 169 159 166 145 101 163 194 206 166 170 176 194 222 201 197 197 194 187 180 180 169 150 153 142 150 169 164 163 160 173 154 145 154 148 139 122 105 97 96 95
357 85 297 280 287 176 163 137 88 46 153 140 156 171 191 199 199 174 172 180 193 214 200 203 203 205 202 193 190 199 195 189 182 173 176 162 176 179 175 164 166 165 166 162 141 122 103 94 94
235 56 272 278 346 12 140 113 96 88 126 150 154 172 192 180 192 181 177 183 188 208 218 215 209 210 209 206 203 204 209 209 201 198 192 191 185 188 190 179 177 173 179 178 162 139 120 115 100
164 144 224 35 9 30 48 121 145 193 189 181 132 212 186 185 196 191 188 188 197 202 222 227 211 208 213 211 211 214 218 217 211 210 207 203 198 195 194 195 188 188 189 193 196 189 173 162 152
192 204 271 5 37 19 12 18 337 182 278 228 207 210 204 198 203 204 206 202 199 212 217 216 220 218 219 212 216 216 222 222 223 219 214 213 208 205 206 203 203 204 205 208 213 219 222 219 182
247 257 273 288 73 12 336 334 332 287 248 298 321 236 216 209 211 214 214 211 201 210 223 219 213 220 225 221 227 225 223 227 227 220 212 217 224 217 219 220 219 218 217 218 222 223 227 231 235
213 240 255 270 287 270 286 289 278 288 280 295 277 219 228 224 225 226 226 223 219 211 219 229 220 218 222 223 232 240 225 230 228 226 219 224 233 233 233 229 229 225 226 229 228 230 233 242 240
309 280 256 277 273 249 232 262 269 254 259 294 243 232 220 236 244 233 231 230 225 216 212 227 225 224 224 227 231 239 238 234 236 234 233 232 236 236 234 234 230 229 229 231 237 241 245 246 247
279 282 310 270 265 226 132 285 231 264 265 261 270 235 225 237 249 251 252 247 236 227 219 223 233 231 227 230 234 239 241 239 236 238 237 239 240 240 239 239 239 236 233 234 235 235 239 245 241
304 130 243 219 252 264 221 261 231 254 275 254 254 239 234 245 241 252 257 258 254 235 227 224 233 235 232 232 235 239 241 241 239 241 242 241 241 242 241 241 242 241 239 237 237 237 242 247 245
226 224 234 285 256 264 194 255 244 255 266 262 258 248 240 244 240 243 251 256 258 253 235 229 230 237 236 234 236 242 245 244 244 242 243 245 243 242 242 244 245 242 240 239 239 241 244 246 246
213 207 339 321 352 317 253 249 262 254 269 270 274 252 242 242 241 243 248 252 251 256 252 240 233 236 239 238 235 238 244 247 248 246 247 248 247 242 242 244 245 243 242 240 241 242 244 245 243
130 131 197 267 324 339 344 299 285 285 271 274 276 263 256 256 251 256 259 248 244 248 255 251 236 234 236 236 232 235 237 240 243 246 249 253 249 247 243 243 244 242 243 245 245 246 245 244 241
208 187 234 303 268 1 329 308 301 284 276 271 271 273 269 257 253 250 255 247 240 245 254 257 250 242 238 241 241 241 241 244 247 247 250 244 246 250 246 245 245 244 243 244 244 244 245 246 240
216 225 220 240 11 196 289 278 258 262 259 264 261 261 260 259 257 249 242 244 245 242 248 253 255 251 246 246 245 244 245 246 245 246 246 249 249 249 250 247 247 246 245 245 247 249 247 248 244
223 216 211 201 162 232 157 291 240 247 259 257 264 252 250 253 257 249 249 249 251 254 252 252 256 254 251 248 248 248 246 248 253 250 249 249 252 252 254 252 248 248 246 246 248 249 250 249 248
225 156 189 168 178 258 204 246 279 232 256 254 251 254 255 253 263 257 251 253 256 258 256 254 257 256 252 247 247 252 251 254 258 256 254 254 253 251 252 252 253 250 248 247 248 248 247 248 248
143 137 166 169 215 217 220 194 264 206 224 298 301 256 85 118 132 176 212 241 238 236 245 255 251 254 254 251 251 251 254 255 258 254 254 255 255 255 251 250 251 252 251 250 249 251 251 250 251
202 153 181 206 205 229 178 179 250 283 263 194 167 107 99 92 89 83 72 53 297 271 266 257 253 254 256 257 254 253 254 257 260 261 260 258 257 255 256 252 251 250 251 252 252 251 251 251 251
194 201 160 198 200 235 133 222 253 238 256 173 157 126 113 105 86 71 64 63 52 42 37 14 280 260 252 253 255 257 257 256 258 260 261 261 261 263 263 261 258 258 255 255 255 253 253 252 253
182 209 215 104 50 61 208 270 302 269 173 124 115 118 117 95 83 75 65 47 36 27 18 10 9 0 296 263 255 255 256 257 257 260 259 261 263 264 263 263 263 261 259 257 255 255 254 254 254
191 158 193 185 183 219 258 252 224 94 98 112 110 118 126 93 76 49 33 24 20 12 4 1 350 334 334 320 270 257 256 257 257 260 260 261 265 265 264 263 263 263 261 260 257 255 255 254 254
211 197 205 171 166 206 173 258 249 190 144 127 129 125 127 107 64 34 22 16 11 11 7 356 349 344 335 331 320 279 264 260 260 258 259 260 262 263 262 263 262 262 261 260 257 255 254 253 254
329 201 239 193 186 236 158 222 113 131 144 139 116 122 120 93 41 2 6 3 3 8 8 3 357 351 348 343 329 313 287 270 262 260 260 262 262 262 261 260 255 256 256 256 255 254 252 251 251